Location: Gloden
(48.4833°N, 15.3167°E)
Time: 08:57:04
(UTC+00:00)

Nadezhda 2 Rocket - Pass Details

Date: 15 December 2019
Orbit: 947 x 1011 km, 83.0° (Epoch: 28 January)

Event Time Altitude Azimuth Distance (km) Brightness Sun altitude
Rises 05:31:13 0° 350° (N) 3,645 7.2 -11.3°
Reaches altitude 10° 05:33:43 10° 350° (N) 2,690 6.5 -10.9°
Maximum altitude 05:39:52 83° 264° (W) 961 4.4 -10.0°
Drops below altitude 10° 05:45:57 10° 176° (S) 2,664 7.2 -9.1°
Sets 05:48:26 0° 176° (S) 3,608 7.9 -8.7°
